Вернуться в каталог

COSMOS 1365

АктивенВоенныеLEO
NORAD 13175·PAYLOAD·🇷🇺 Russia

Запущен May 14, 1982 с Baikonur Cosmodrome

Loading…

Ближайшие Пролёты (ближайшие 24 часа)

TLE

СвежийSource: Space-Track

Эпоха: Sep 14, 2026, 11:45 UTC

1 13175U 82043A   26257.49013649 -.00000069  00000-0  16738-4 0  9997
2 13175  65.0707 332.4172 0054768 358.2754  13.8224 13.89786685252370

Отслеживайте COSMOS 1365 в реальном времени с AllMySat

Download on the App Store